Location: La Pernelle
(49.6188°N, 1.2999°W)
Time: 04:32:04
(UTC+00:00)

NOSS 3-2 (A) - Pass Details

Date: 25 October 2021
Orbit: 771 x 1437 km, 63.4° (Epoch: 21 November)

Event Time Altitude Azimuth Distance (km) Brightness Sun altitude
Rises 19:08:41 0° 312° (NW) 3,774 7.4 -22.2°
Reaches altitude 10° 19:11:21 10° 320° (NW) 2,916 6.6 -22.7°
Maximum altitude 19:17:57 41° 30° (NNE) 1,680 4.5 -23.7°
Enters shadow 19:19:55 36° 62° (ENE) 1,874 4.5 -24.0°
